(404) Arsinoe
ephemeris date magn radius delta ra dec elong phase
Today5 Sep 202614.73.107 AU2.752 AU04h05m+08°10'101.0°18.6°
Opposition15 Nov 202613.63.069 AU2.097 AU03h39m+05°57'166.8°4.2°
(404) Arsinoe - 2026-09-05
astro.vanbuitenen.nl


 
-1 year
-1 month
-1 day
Now
+1 day
+1 month
+1 year

The interactive orbit chart above shows the body's path through the solar system and its position at the given date. Green and blue lines are shown perpendicular to the ecliptic plane: Green if the path is above the ecliptic plane, blue if it is below. (Left-click and drag to rotate the view; Right-click and drag to move the view; Use scroll wheel to zoom in our out.)

The orbital elements of Arsinoe are:

            e (Eccentricity)                : 0.2017865
            a (Semimajor axis)              : 2.5914457
            i (Inclination)                 : 14.09838
            Ω (Longitude of ascending node) : 92.46291
            ω (Argument of perihelion)      : 120.49000
            M (Mean anomaly)                : 171.14073
            Epoch                           : 2026 Jun 09

            L (Longitude of perihelion)     : 33.72470
            B (Latitude of perihelion)      : 12.11671
            P (Orbital period in years)     : 4.17            
        

The light curve chart below shows the estimated development of the minor planet's magnitude.


The all-sky chart below shows the path of the minor planet over the same period as the light curve. The current position is marked yellow.





The following chart shows the path of the minor planet in the next few days. The field of view is optimized for (~10x50) binoculars and finderscopes.




Ephemerides:
Date       Time       RA (2000)    DEC (2000)    delta   radius  elong  phase   PA    magn
2026-09-05 00:00 UT   04 05 02.5   +08 10 02     2.752    3.107  101.0   18.6   261   14.7 
2026-09-05 06:48 UT   04 05 09.4   +08 09 47     2.748    3.106  101.2   18.6   261   14.7 
2026-09-06 00:00 UT   04 05 26.4   +08 09 08     2.738    3.106  101.8   18.5   261   14.7 
2026-09-07 00:00 UT   04 05 49.1   +08 08 09     2.725    3.106  102.7   18.5   262   14.7 
2026-09-08 00:00 UT   04 06 10.6   +08 07 07     2.711    3.106  103.6   18.4   262   14.7 
2026-09-09 00:00 UT   04 06 31.0   +08 06 01     2.697    3.105  104.4   18.3   262   14.7 
2026-09-10 00:00 UT   04 06 50.1   +08 04 51     2.683    3.105  105.3   18.2   262   14.7 
2026-09-11 00:00 UT   04 07 08.1   +08 03 38     2.670    3.105  106.2   18.1   263   14.7 
2026-09-12 00:00 UT   04 07 24.8   +08 02 21     2.656    3.104  107.1   18.1   263   14.6 
2026-09-13 00:00 UT   04 07 40.3   +08 01 01     2.642    3.104  107.9   18.0   263   14.6 
2026-09-14 00:00 UT   04 07 54.5   +07 59 37     2.629    3.103  108.8   17.9   263   14.6 
2026-09-15 00:00 UT   04 08 07.5   +07 58 10     2.616    3.103  109.7   17.8   264   14.6 
2026-09-16 00:00 UT   04 08 19.1   +07 56 40     2.602    3.103  110.6   17.7   264   14.6 
2026-09-17 00:00 UT   04 08 29.5   +07 55 07     2.589    3.102  111.5   17.5   264   14.6 
2026-09-18 00:00 UT   04 08 38.6   +07 53 31     2.576    3.102  112.5   17.4   264   14.6 
2026-09-19 00:00 UT   04 08 46.3   +07 51 51     2.563    3.102  113.4   17.3   265   14.5 
2026-09-20 00:00 UT   04 08 52.7   +07 50 09     2.550    3.101  114.3   17.2   265   14.5 
2026-09-21 00:00 UT   04 08 57.8   +07 48 24     2.537    3.101  115.2   17.0   265   14.5 
2026-09-22 00:00 UT   04 09 01.5   +07 46 36     2.524    3.100  116.2   16.9   266   14.5 
2026-09-23 00:00 UT   04 09 03.9   +07 44 45     2.511    3.100  117.1   16.8   266   14.5 
2026-09-24 00:00 UT   04 09 04.9   +07 42 52     2.499    3.100  118.0   16.6   266   14.5 
2026-09-25 00:00 UT   04 09 04.5   +07 40 56     2.486    3.099  119.0   16.4   266   14.4 
2026-09-26 00:00 UT   04 09 02.8   +07 38 58     2.474    3.099  119.9   16.3   267   14.4 
2026-09-27 00:00 UT   04 08 59.6   +07 36 58     2.462    3.098  120.9   16.1   267   14.4 
2026-09-28 00:00 UT   04 08 55.1   +07 34 55     2.449    3.098  121.9   15.9   267   14.4 
2026-09-29 00:00 UT   04 08 49.1   +07 32 50     2.437    3.097  122.8   15.8   268   14.4 
2026-09-30 00:00 UT   04 08 41.7   +07 30 43     2.426    3.097  123.8   15.6   268   14.4 
2026-10-01 00:00 UT   04 08 32.9   +07 28 34     2.414    3.096  124.8   15.4   268   14.3 
2026-10-02 00:00 UT   04 08 22.7   +07 26 23     2.402    3.096  125.8   15.2   269   14.3 
2026-10-03 00:00 UT   04 08 11.0   +07 24 11     2.391    3.095  126.8   15.0   269   14.3 
2026-10-04 00:00 UT   04 07 57.8   +07 21 57     2.379    3.095  127.8   14.8   270   14.3 
2026-10-05 00:00 UT   04 07 43.2   +07 19 41     2.368    3.094  128.8   14.6   270   14.3 


    Terminology:
            
    delta:  distance between minor planet and earth in AU
    radius: distance between minor planet and sun in AU
    magn:   magnitude (brightness) estimate    
    ra:     right ascension in hours (24h = 360deg)
    dec:    declination in degrees
    elong:  elongation in degrees (angle sun-earth-minor planet)    
    phase:  phase angle in degrees (angle sun-minor planet-earth)        
    AU:     Astronomical Unit (mean distance between earth and sun: 149597870.7 km
    

Orbital elements provided by the MPC (Minor Planet Center).
Calculations by a modified version of AAPlus, a C# implementation of the AA+ project by PJ Naughter from the algorithms presented in the book "Astronomical Algorithms" by Jean Meeus.
NGC2000 dso catalog and star labels from VizieR as provided by the Strasbourg astronomical Data Center.
Tycho2 catalog from the ESO archive.